ECMWFFLT1_700_spd_000.txt.gz
Wind_Speed
1 2 3 4 4 4 3 3 3 4 4 5 6 6 7 7 7 7 7 8 7 7 7 7 9 10 11 12 14 15 16 17 17 16 15 14 15 15 14 15 14 14 15 15 15 15 15 16 15 14 16 16 17 21 23 22 22 23 23 23 24 23 24
3 3 4 5 5 4 4 3 3 3 4 5 6 7 7 7 7 7 7 7 6 6 6 5 6 7 8 8 8 8 8 9 10 12 12 14 15 14 13 13 13 13 13 14 16 16 16 16 15 15 14 14 15 18 21 22 22 23 23 24 24 23 24
3 4 5 5 5 4 3 2 2 1 2 3 4 5 7 7 8 8 8 7 6 6 5 5 5 6 7 7 7 7 6 5 5 6 8 10 11 12 12 12 12 13 13 13 14 15 15 16 16 16 15 14 14 16 19 22 24 24 24 23 23 24 26
4 3 4 5 4 2 1 1 2 3 4 3 3 3 4 6 7 8 8 8 8 7 6 6 5 6 6 6 6 6 5 5 4 4 4 5 6 7 7 8 9 10 11 12 13 14 15 16 16 18 17 17 17 18 18 19 21 21 20 21 22 23 25
3 2 2 3 2 1 2 3 4 5 5 6 5 4 3 3 4 6 7 7 8 7 7 7 6 6 7 7 6 6 5 5 4 4 4 4 5 5 5 6 7 8 8 9 10 11 12 13 13 15 17 19 19 19 19 19 19 18 19 23 24 24 26
2 1 2 3 3 3 3 3 5 5 6 6 7 6 6 4 3 2 4 5 6 6 6 6 6 6 7 7 7 7 7 7 7 7 7 7 7 7 7 7 7 8 8 9 9 9 10 10 11 12 12 14 15 14 14 16 18 19 21 26 27 27 27
3 1 2 3 4 3 3 3 3 4 5 6 7 7 7 7 6 4 2 2 3 4 4 5 5 5 5 6 6 7 8 8 9 10 10 11 11 11 11 11 11 11 11 11 11 11 12 12 12 12 12 12 13 12 11 12 14 16 18 20 23 25 26
4 3 2 2 2 3 2 2 2 2 3 4 5 6 7 7 7 6 5 3 3 3 3 3 4 4 4 4 4 5 6 7 8 10 11 12 13 13 13 14 14 14 14 15 15 15 15 15 15 15 15 15 14 14 14 13 14 14 15 15 18 20 22
6 5 4 4 4 4 3 3 1 1 0 2 3 5 6 7 7 7 6 5 4 4 4 4 5 6 6 6 6 6 6 6 7 8 9 10 11 12 12 13 14 15 15 16 16 16 17 17 17 17 17 17 17 16 16 16 16 17 17 17 17 18 20
10 8 8 8 8 7 5 5 4 3 2 3 4 5 6 6 6 7 7 6 5 5 5 5 6 7 7 7 7 7 7 7 7 7 8 8 9 10 10 11 12 13 14 15 15 15 16 16 16 16 16 16 16 16 16 16 16 17 19 20 19 20 21
12 11 12 12 12 11 9 8 7 6 5 4 5 6 7 7 7 7 6 6 6 6 6 6 6 6 6 7 7 7 8 8 9 9 9 10 10 10 11 11 11 12 12 13 14 14 14 15 15 15 14 14 14 14 15 15 15 15 17 19 20 21 22
13 13 15 15 15 14 13 12 11 10 9 8 7 7 8 8 8 8 7 6 5 6 6 6 6 7 7 7 7 8 8 9 9 9 10 10 11 11 11 12 12 13 13 13 13 13 14 14 14 14 14 14 14 14 14 15 15 15 16 18 19 20 21
16 16 17 18 18 16 16 15 15 15 14 13 12 10 9 10 10 9 8 7 6 6 6 6 6 6 7 8 8 8 9 9 9 10 10 10 11 12 12 12 13 13 14 14 14 14 14 15 15 15 15 15 15 14 14 15 17 17 16 18 18 19 20
20 18 18 19 20 20 19 19 18 18 19 19 17 15 14 13 13 12 10 9 9 8 8 8 7 7 7 8 9 10 10 10 10 11 11 12 12 13 14 14 14 15 15 15 16 16 16 16 17 17 17 16 16 16 15 15 16 17 17 17 18 18 19
24 22 20 20 21 20 21 21 21 21 22 22 22 21 20 18 17 16 14 12 12 12 12 12 11 10 10 10 12 13 13 13 12 12 12 13 14 15 15 16 16 17 17 18 18 18 19 19 19 19 19 19 18 18 17 17 17 18 18 18 19 19 19
28 27 27 26 24 22 21 21 22 23 24 24 25 25 25 23 22 21 18 16 15 15 16 16 16 15 15 15 15 16 17 16 16 15 15 16 16 16 17 17 17 18 19 20 20 21 21 21 22 22 22 22 21 20 20 20 20 21 21 21 21 21 21
27 27 28 29 28 27 24 22 21 23 25 26 27 28 29 28 27 26 24 21 20 20 20 19 19 19 19 19 19 19 19 19 19 19 19 19 19 19 19 19 19 19 20 21 22 23 24 24 24 25 25 25 25 25 23 23 23 24 24 24 22 23 23
24 24 25 26 27 28 28 26 24 24 26 28 28 30 32 33 32 31 28 27 25 24 23 23 22 22 22 23 24 24 23 23 22 22 22 22 22 23 23 23 22 22 22 23 23 24 25 26 26 27 28 28 28 28 27 26 26 26 27 26 25 24 24
23 23 23 22 22 23 25 26 27 27 28 30 30 32 34 36 36 35 33 31 30 27 26 26 26 25 25 27 28 28 28 27 27 27 27 27 27 27 27 27 26 25 25 25 25 26 27 27 28 28 29 30 30 31 30 29 29 29 29 29 29 28 26
20 21 20 20 20 20 21 24 26 28 32 34 34 33 34 36 38 37 36 35 32 30 29 29 29 29 29 30 30 31 32 32 32 32 32 33 33 34 33 32 31 30 29 28 27 28 28 29 29 30 30 31 31 32 32 32 31 31 31 31 31 31 31
20 20 21 22 22 23 23 24 26 28 31 36 37 35 36 38 38 39 40 38 36 34 34 34 33 33 33 33 34 35 35 35 36 37 37 37 37 37 37 36 35 35 33 31 30 29 29 30 31 31 32 32 33 33 33 33 34 33 33 33 33 33 33
24 24 24 25 25 26 26 26 27 27 28 33 38 39 40 41 41 41 42 41 39 38 39 38 37 36 36 36 35 36 36 36 38 38 39 39 39 39 39 38 37 37 36 35 33 32 31 31 32 33 33 34 34 35 35 35 35 35 35 35 35 34 35
26 27 27 28 28 29 30 30 31 30 29 31 34 39 43 45 45 45 43 40 40 41 42 42 40 38 37 36 35 35 36 37 37 39 40 40 40 41 41 41 39 38 37 37 36 35 34 33 34 34 34 35 36 36 36 36 36 37 37 37 37 37 37
30 30 30 31 32 33 34 35 35 35 34 33 34 37 40 44 49 48 43 40 43 45 44 44 44 40 36 34 34 35 36 37 38 40 41 41 41 43 43 42 41 40 39 38 37 37 37 36 36 35 36 36 37 37 38 38 38 38 39 40 40 40 40
35 36 37 37 37 36 36 37 38 39 38 36 35 35 37 40 47 49 45 44 47 48 47 47 45 41 36 34 35 37 37 38 39 40 40 40 43 45 43 41 40 40 40 39 38 39 39 39 38 38 37 37 38 38 39 39 40 40 41 42 42 42 42
32 34 35 37 38 37 37 37 38 39 40 39 37 37 37 38 41 45 44 44 47 48 48 48 43 38 36 36 39 40 38 37 37 38 39 41 44 44 42 40 40 40 41 41 39 39 38 39 40 41 40 39 39 39 40 40 41 42 42 43 44 44 43
31 32 32 34 36 37 38 38 38 39 40 40 38 37 38 37 37 38 36 35 39 43 45 44 41 39 39 40 40 40 37 35 36 38 40 41 43 42 40 38 39 40 41 41 41 40 39 39 40 42 42 42 42 42 42 42 42 43 43 44 45 45 45
32 32 32 33 34 35 36 36 37 39 40 40 39 37 37 37 36 34 31 30 33 38 40 41 41 42 42 41 39 37 35 35 36 39 41 41 40 39 38 37 38 39 41 41 41 40 40 40 41 43 43 44 44 44 44 45 45 45 45 46 46 46 46
33 33 33 34 34 34 35 35 36 37 39 40 39 37 37 37 35 33 30 29 32 35 38 39 41 42 42 41 38 35 35 36 38 39 41 40 38 37 37 38 38 39 40 41 41 41 41 41 43 44 45 45 46 46 46 46 47 46 46 47 48 48 48
33 34 34 34 35 35 35 35 35 36 38 39 39 38 37 36 35 32 30 30 33 37 39 40 41 43 43 41 38 36 37 38 38 38 39 38 37 37 38 38 38 39 41 42 42 42 42 42 44 45 46 46 47 47 47 47 47 47 47 48 48 48 48
32 32 32 33 35 35 35 36 36 37 38 38 38 37 36 35 34 32 31 32 35 38 39 40 43 44 43 40 38 38 38 37 36 36 36 36 37 38 39 39 39 40 40 42 43 43 43 43 45 46 47 47 47 47 47 47 48 49 49 50 50 49 48
31 32 33 33 35 35 36 36 37 38 38 38 36 36 35 34 32 32 34 35 36 38 40 43 45 44 40 38 38 37 35 35 35 35 36 37 38 39 40 40 41 42 42 42 42 43 43 45 46 48 48 49 49 48 48 48 49 50 50 51 51 50 49
34 35 35 35 35 35 36 36 36 37 38 36 33 34 34 32 31 32 36 37 38 39 41 42 42 40 36 34 34 34 33 34 34 35 37 38 40 40 41 41 42 44 46 45 44 44 45 46 47 48 49 50 50 49 49 50 50 51 51 51 51 50 50
36 37 36 35 34 34 34 34 34 34 35 33 32 33 33 31 31 34 36 38 41 42 41 40 39 36 33 32 33 34 34 34 35 36 38 40 41 42 43 43 43 45 47 47 47 46 47 47 47 47 48 49 49 50 50 51 51 51 52 51 50 50 49
36 37 36 33 32 32 33 33 32 32 32 32 31 30 29 29 32 36 38 40 42 43 41 39 36 33 33 34 34 35 35 35 36 39 40 42 43 44 44 45 45 46 47 47 47 47 48 48 48 48 48 49 49 50 50 51 51 51 51 51 50 50 49
36 37 35 32 32 32 33 32 31 30 30 29 28 28 29 31 34 39 42 43 41 39 38 37 35 34 35 34 34 34 34 36 38 40 42 43 44 44 45 46 46 46 46 47 47 48 48 48 49 49 49 50 50 50 51 51 51 51 51 51 50 50 50
36 38 36 33 33 34 33 31 29 28 28 27 27 29 33 35 38 41 43 41 38 36 36 35 34 33 32 31 31 33 35 38 40 41 42 43 43 44 45 45 45 46 46 47 48 48 49 49 49 50 51 51 52 52 52 52 51 51 51 51 51 51 50

ECMWFFLT1_700_spd_003.txt.gz
Wind_Speed
2 2 4 4 5 5 5 5 5 5 5 5 5 5 4 4 4 3 3 3 4 4 5 5 5 6 6 6 6 6 6 6 7 7 7 9 9 9 11 11 12 12 13 15 14 12 12 12 12 12 15 20 25 26 26 27 28 27 27 28 28 25 22
4 4 5 6 6 7 7 7 7 7 7 7 6 6 5 5 4 4 4 3 4 3 4 4 5 5 4 4 4 4 4 5 6 7 7 8 8 8 9 9 9 9 11 13 12 12 13 13 14 14 13 14 18 24 26 26 27 29 29 26 25 23 20
5 5 6 6 7 7 7 7 7 6 6 5 4 5 5 5 5 5 5 5 4 4 4 4 5 5 4 3 3 2 2 3 4 5 6 7 9 10 10 10 10 10 10 11 10 10 12 12 13 15 15 14 14 15 20 23 27 29 29 26 24 24 23
5 6 6 6 6 6 5 4 4 2 1 1 1 1 2 3 4 5 5 6 5 5 5 5 5 6 5 4 4 3 2 2 2 3 4 6 7 9 10 12 13 13 13 14 12 11 12 14 16 16 16 17 15 12 12 15 21 26 29 29 27 26 25
4 4 5 4 4 3 3 3 2 2 3 3 3 3 2 1 2 3 5 5 6 6 6 6 6 7 7 7 6 6 5 4 4 3 4 4 5 7 8 9 10 11 11 12 11 11 12 13 13 15 15 17 17 15 13 13 13 18 23 26 26 27 28
3 2 2 2 3 3 4 4 4 4 5 5 6 6 5 3 2 1 2 3 4 5 5 5 6 6 7 7 7 7 7 7 6 6 6 6 6 7 8 8 9 9 9 10 9 9 10 10 9 10 11 12 13 13 14 14 13 13 15 17 19 22 23
3 2 1 2 2 2 3 3 4 5 6 7 7 7 7 6 4 3 2 1 2 2 3 3 4 4 5 6 7 7 7 7 7 8 8 9 9 9 9 10 11 11 11 11 11 10 10 11 10 10 9 10 10 10 11 12 12 12 13 14 15 15 15
5 4 2 2 2 2 1 1 2 3 5 6 6 7 8 8 7 6 5 4 3 2 2 2 2 2 2 3 4 5 5 6 6 7 8 8 9 10 11 12 12 13 13 14 14 14 13 13 14 13 13 13 12 12 12 12 12 12 12 12 10 8 11
8 6 4 3 4 4 4 2 1 1 1 2 4 5 6 7 7 7 6 6 5 4 4 3 3 3 3 3 4 5 6 6 6 6 6 7 7 8 9 10 11 12 13 14 15 15 15 15 15 15 15 15 15 14 14 14 14 14 14 14 10 6 10
11 9 8 7 6 7 7 6 5 4 3 2 1 2 3 4 5 5 5 5 5 4 4 3 3 4 4 5 5 6 7 7 7 7 7 6 6 6 7 7 8 9 10 12 13 13 14 14 14 14 14 14 14 14 14 13 13 13 15 16 14 13 16
16 15 13 11 11 11 10 10 9 8 7 6 5 4 3 2 2 3 3 3 4 4 3 3 4 5 5 6 6 7 7 8 8 9 8 8 8 8 8 7 7 8 8 9 10 11 12 12 12 12 12 12 12 12 12 12 11 11 13 14 14 15 18
21 20 17 15 15 14 12 12 12 12 11 10 8 7 6 5 3 1 1 1 2 2 2 2 3 4 6 6 7 7 8 8 9 10 10 11 11 10 11 11 10 10 10 10 9 9 10 11 11 11 11 11 12 12 12 12 11 11 11 12 13 14 16
23 23 21 18 18 16 15 15 16 15 15 14 13 11 10 10 8 6 4 3 3 3 3 3 3 4 6 6 7 8 8 8 9 9 10 11 12 13 13 13 13 14 14 13 13 12 11 11 12 12 12 12 13 13 14 14 13 12 12 13 13 13 15
24 25 25 22 20 19 18 18 18 17 17 18 17 15 15 14 13 12 10 8 7 7 7 6 6 6 8 9 10 10 11 11 10 10 10 11 12 13 14 14 14 15 16 16 17 16 15 14 14 14 14 15 15 16 16 16 16 15 14 14 14 14 15
27 27 27 24 23 23 21 19 18 18 18 19 19 18 18 18 17 16 16 14 12 11 10 10 10 10 11 12 13 14 15 16 15 14 14 13 13 13 15 15 15 16 17 18 19 19 19 18 18 18 17 17 17 19 19 19 19 19 18 17 17 16 17
30 30 29 28 28 27 24 20 19 18 19 19 18 19 20 21 21 20 20 19 18 16 15 15 14 14 15 15 17 17 19 19 20 19 19 18 17 17 17 17 17 17 18 19 20 21 22 22 22 22 22 21 21 21 22 22 22 22 21 20 19 19 19
32 33 33 32 31 30 28 24 22 21 21 21 20 21 21 22 24 23 23 23 22 21 20 20 19 19 19 19 20 21 21 22 22 23 23 23 23 23 22 22 22 21 21 22 22 23 23 24 24 25 25 25 25 25 25 24 24 24 24 23 22 22 22
31 33 35 35 35 34 32 28 27 27 26 26 25 24 23 24 25 25 25 25 24 24 23 23 23 23 23 23 24 24 24 24 25 25 25 25 26 26 27 27 27 27 26 25 25 25 25 25 26 26 27 27 28 28 28 28 28 27 26 26 25 24 24
32 32 33 34 34 32 28 25 27 28 28 30 30 29 29 29 29 28 27 27 28 27 26 25 26 26 26 26 26 27 27 27 27 27 26 27 26 27 28 30 31 31 30 29 28 27 27 27 27 27 28 29 29 29 30 30 31 30 30 29 28 27 27
33 27 27 28 27 26 24 23 24 24 24 28 29 28 31 32 31 31 29 30 32 32 30 30 29 28 27 28 29 30 30 30 30 29 29 28 28 28 29 30 31 31 31 31 31 31 30 30 29 29 29 30 30 30 31 31 32 32 32 32 32 31 30
27 20 22 25 24 24 24 22 21 22 23 26 26 27 29 31 33 34 31 31 34 36 36 35 33 31 30 30 31 32 33 33 32 32 31 30 30 29 30 30 31 33 34 34 34 34 34 34 33 32 31 31 31 32 32 33 33 33 34 34 34 33 33
25 22 24 27 26 25 23 21 22 23 23 24 25 25 27 30 33 34 32 32 36 38 40 39 37 35 35 34 33 35 36 34 34 34 33 32 32 31 32 33 35 37 37 36 35 35 36 37 37 35 33 32 32 33 33 34 34 35 35 35 35 35 35
25 25 27 29 29 28 28 27 27 26 25 25 24 24 26 28 30 31 31 32 35 39 40 40 40 40 39 37 37 38 37 36 37 37 36 34 34 34 35 37 39 38 36 34 35 36 38 39 39 37 35 33 33 34 34 34 35 35 37 37 37 36 36
20 21 23 25 26 26 26 26 26 27 28 28 29 30 30 30 30 31 31 30 32 36 37 39 41 43 42 40 40 40 39 40 41 40 36 35 36 37 38 39 39 37 35 34 36 38 39 39 38 37 36 35 35 35 35 36 36 36 37 38 38 38 38
23 24 24 24 25 26 27 28 29 32 32 34 37 38 35 33 32 32 32 30 31 34 36 37 39 40 41 42 44 44 43 44 45 42 37 35 36 38 40 39 37 37 36 37 39 40 41 40 38 37 36 36 36 34 35 36 37 37 38 39 39 39 39
28 28 28 28 29 30 31 32 33 34 35 37 39 39 36 34 34 34 34 32 32 35 37 37 37 37 39 42 45 46 46 48 47 42 37 35 35 37 39 37 36 37 40 42 42 42 42 41 39 38 37 37 36 35 35 35 36 37 38 39 40 40 39
29 29 29 30 31 31 31 31 31 32 33 34 35 36 36 36 36 36 36 35 35 37 36 35 35 35 36 39 42 45 47 48 44 39 37 36 36 37 37 35 36 38 42 44 45 44 43 41 39 38 38 38 37 37 37 36 36 36 37 38 39 40 40
28 29 30 30 30 30 30 30 29 29 29 31 33 34 34 34 35 36 36 37 39 38 34 33 34 34 35 37 39 43 46 47 43 39 39 37 37 37 36 36 38 40 43 45 45 43 41 39 37 37 37 38 38 39 39 39 38 38 38 38 39 40 41
30 30 31 31 30 31 30 30 29 28 28 28 29 31 32 33 34 35 36 37 38 37 34 34 35 35 36 37 37 41 44 44 41 39 39 38 37 38 38 38 40 43 44 44 43 42 39 36 36 37 38 39 40 41 41 41 41 41 40 40 41 42 43
31 30 30 30 30 30 29 29 28 27 27 27 27 28 30 30 32 34 36 38 37 35 34 34 35 35 36 36 36 39 42 41 39 40 40 38 37 37 38 39 41 43 43 41 41 40 38 37 38 40 41 42 42 43 44 43 43 43 43 43 43 43 43
29 28 28 27 27 27 27 27 27 26 27 27 27 28 29 28 29 33 37 38 37 34 33 34 35 35 36 36 36 37 39 39 39 39 39 38 37 37 37 39 41 42 41 40 40 40 39 39 40 42 43 44 45 45 46 46 46 46 46 46 46 45 45
31 29 28 27 27 26 27 28 27 27 28 28 28 29 29 27 30 33 34 34 33 32 32 34 36 36 36 35 34 34 36 37 37 37 36 36 36 36 37 39 41 41 40 40 41 42 42 43 43 44 44 45 46 47 47 47 48 48 49 49 49 48 48
34 33 33 32 30 29 29 29 29 28 28 28 29 29 28 28 31 32 30 30 31 31 32 34 35 36 35 34 34 34 35 36 36 36 36 35 35 36 38 39 41 41 41 41 43 44 46 46 47 47 47 47 47 48 48 48 48 49 49 50 50 49 49
37 37 36 36 34 33 31 31 30 29 28 28 27 27 27 30 32 30 29 31 33 33 33 34 34 33 33 34 35 36 36 36 36 36 36 37 37 39 40 40 40 42 43 44 46 47 48 48 49 50 50 50 49 48 49 50 50 50 50 50 50 50 49
38 37 37 35 35 35 34 33 33 31 29 28 28 28 30 32 32 31 31 33 34 33 32 32 33 33 35 36 37 37 37 36 35 35 37 39 40 40 39 39 40 43 45 47 48 49 49 49 50 50 51 51 51 50 50 50 50 51 50 49 49 49 49
39 37 37 36 36 36 35 36 36 34 32 32 32 32 32 32 33 33 33 33 33 32 31 33 34 36 37 37 37 37 36 36 35 36 38 39 39 38 38 39 42 45 46 48 48 48 49 49 49 50 50 50 51 51 51 51 50 50 50 50 49 49 48
41 40 39 40 39 38 37 38 38 37 36 34 33 32 33 33 34 34 33 32 31 31 32 34 36 37 38 38 38 37 36 35 35 36 37 36 37 37 38 41 43 45 45 46 46 47 48 48 49 50 50 51 51 52 52 53 52 52 51 51 50 49 48

ECMWFFLT1_700_spd_006.txt.gz
Wind_Speed
12 10 8 6 4 4 4 5 5 5 6 6 6 5 4 3 2 2 2 3 4 4 5 5 5 5 6 5 4 5 7 8 9 9 10 11 11 11 11 11 11 12 12 12 12 11 10 10 9 10 11 12 13 15 20 25 25 24 26 27 28 28 28
11 10 9 7 6 6 6 6 6 6 7 7 7 6 5 5 3 2 2 2 2 2 3 3 4 4 3 3 3 3 4 4 5 6 8 10 11 11 12 12 12 12 12 12 12 11 11 11 11 12 13 12 11 11 14 19 24 26 26 27 28 29 29
11 11 9 8 7 7 6 5 5 5 5 5 5 5 5 5 4 4 3 2 2 1 1 1 2 1 1 1 1 1 2 2 3 5 6 8 9 10 11 11 11 11 11 11 10 9 9 10 12 13 13 12 13 13 12 13 17 24 28 28 27 28 28
10 10 8 6 5 4 3 2 2 2 3 3 2 2 2 2 2 3 2 2 2 2 2 2 2 2 2 2 1 1 1 2 2 3 4 6 7 8 9 10 10 11 11 10 10 10 10 10 12 13 14 14 14 14 14 12 11 14 22 27 27 27 28
8 7 5 3 2 1 1 2 1 1 1 1 1 2 2 2 2 1 1 1 1 2 2 2 3 3 3 3 3 3 3 3 3 3 4 4 5 6 7 8 8 9 10 11 11 12 12 12 12 12 13 14 14 14 15 14 12 10 11 16 21 25 27
7 5 2 1 2 2 2 2 2 2 3 4 4 4 4 5 5 5 4 4 3 3 3 3 3 4 4 4 4 4 4 4 4 4 5 5 6 6 7 7 7 7 8 9 9 10 10 10 10 10 11 11 11 11 12 12 12 11 8 8 10 14 20
6 4 2 1 2 3 2 2 3 4 5 6 7 7 7 7 7 7 7 6 6 5 5 4 4 4 5 5 4 4 4 4 4 4 4 4 5 6 7 8 8 9 9 10 10 10 10 10 11 11 11 11 10 10 10 9 9 8 8 7 5 5 11
7 5 4 3 2 3 3 3 3 4 5 6 7 8 8 8 8 8 8 8 7 7 7 6 6 6 6 6 6 6 5 5 5 4 4 3 3 4 4 5 7 8 9 10 11 12 12 12 12 13 13 13 12 12 12 10 10 9 8 8 7 6 8
8 7 6 5 3 2 3 2 1 2 3 4 5 6 7 7 7 8 8 8 8 8 8 8 8 8 8 8 8 8 8 7 7 6 5 5 4 4 3 3 4 5 6 7 9 10 11 11 11 12 13 13 13 13 13 13 12 12 11 9 8 9 12
10 9 8 7 6 5 4 2 2 3 2 2 2 3 4 5 5 6 6 7 7 7 8 8 8 8 9 10 10 11 11 11 10 9 9 8 7 6 6 5 5 5 6 6 7 8 9 9 10 10 11 11 11 11 11 11 11 12 12 11 11 13 16
13 11 11 11 10 9 8 7 6 6 6 5 3 2 1 1 3 4 4 4 4 5 5 6 7 8 9 10 11 12 12 12 12 12 12 12 11 10 10 9 8 8 8 8 8 9 9 9 9 9 10 10 10 9 9 8 9 10 10 10 12 14 15
15 15 15 16 16 14 13 12 11 10 10 10 7 5 4 3 2 2 3 3 3 3 3 3 4 6 7 8 10 11 11 12 13 13 13 13 13 13 13 12 12 11 11 11 10 11 11 12 12 11 11 10 10 10 9 8 8 9 9 9 10 11 13
18 20 21 21 20 19 16 15 15 14 14 13 10 8 7 7 5 5 4 3 4 5 4 4 4 4 5 6 7 8 9 11 11 12 13 13 13 12 12 12 12 12 12 12 12 12 12 13 13 13 13 13 13 12 12 11 10 10 11 11 11 11 12
23 24 25 25 24 23 20 17 18 18 17 16 14 12 11 10 9 9 8 6 5 6 6 7 7 7 7 7 8 8 9 10 10 11 12 12 13 12 12 11 12 12 13 13 14 14 14 14 14 13 13 13 14 15 15 15 14 14 14 15 14 14 14
27 27 27 28 26 24 22 20 19 20 20 19 18 16 14 13 13 12 11 11 9 9 8 8 9 10 10 11 11 12 12 12 12 13 13 13 14 14 14 14 14 14 15 15 16 16 17 18 17 17 16 16 16 17 17 18 18 18 18 18 19 19 18
28 28 29 29 27 25 25 24 23 23 23 21 20 20 18 16 15 14 14 14 14 13 12 12 12 12 13 14 15 16 17 17 16 16 17 17 16 15 16 17 16 16 17 18 18 19 19 19 19 19 20 20 20 20 20 20 21 21 20 20 21 22 22
28 28 29 29 29 28 28 27 26 25 24 23 22 22 20 18 17 17 17 17 17 16 16 16 15 14 15 17 18 19 20 21 21 20 20 20 20 19 18 19 19 19 19 19 20 20 20 20 20 21 21 22 22 22 23 23 23 23 23 21 21 23 24
28 27 28 30 32 32 32 32 31 28 26 25 24 24 22 20 20 20 20 20 20 21 20 19 18 17 17 18 19 20 21 23 24 24 23 23 23 22 22 22 22 22 22 22 21 22 23 24 24 24 24 25 25 25 25 25 26 26 26 25 23 23 24
26 25 27 28 31 31 31 31 30 29 30 31 30 27 24 24 25 26 25 24 24 24 23 22 21 19 18 19 20 21 22 24 25 26 25 24 24 23 23 24 25 25 26 26 26 27 28 29 28 27 26 26 27 27 27 28 28 28 28 28 27 26 25
27 29 31 31 32 31 30 31 33 32 31 32 33 28 23 24 27 27 25 25 25 25 25 25 25 23 22 20 21 23 24 26 27 28 28 28 27 25 24 24 26 27 28 29 30 31 31 32 32 29 27 27 27 28 29 30 30 30 30 30 29 29 28
33 34 36 36 36 34 33 38 41 36 28 24 24 22 20 20 22 21 20 22 24 26 28 28 27 28 27 24 24 25 26 27 29 30 31 31 31 30 27 26 27 29 31 32 32 33 33 34 33 31 28 28 29 30 31 32 31 31 32 32 31 31 31
37 37 37 37 38 37 37 38 39 36 29 22 18 17 16 16 15 15 17 19 22 25 27 28 26 27 29 28 29 29 28 28 29 31 32 33 34 33 31 31 32 33 33 34 34 35 34 34 34 32 30 30 32 33 34 34 33 32 33 33 32 32 33
34 34 35 35 35 34 35 33 32 30 27 23 22 22 23 23 20 19 19 20 23 25 28 28 26 25 26 29 31 32 30 29 29 30 32 34 36 35 33 35 36 35 36 36 37 36 35 34 34 32 31 33 34 36 36 35 34 33 33 34 34 34 34
28 26 25 25 25 24 24 24 23 23 22 22 24 25 26 27 26 25 24 24 28 31 31 30 27 26 27 30 32 33 33 31 31 30 31 33 36 36 36 38 38 37 38 38 38 37 35 35 34 32 32 34 35 37 37 36 36 35 35 35 35 35 35
24 22 19 19 21 21 20 19 19 20 21 22 23 23 24 26 26 28 29 30 33 36 35 31 29 29 29 31 33 34 33 32 32 32 33 34 36 37 38 39 39 39 40 38 38 38 37 36 35 33 33 34 35 36 36 35 35 35 35 36 35 35 35
23 23 23 24 25 24 22 22 22 23 24 25 25 26 27 27 27 28 30 32 34 36 34 32 30 31 31 32 33 33 32 32 33 35 36 35 35 37 39 41 41 41 39 38 38 39 39 39 37 36 35 35 35 36 36 35 34 33 33 35 35 34 34
25 27 30 31 31 29 28 28 28 28 28 29 29 30 30 29 28 28 30 32 34 33 33 32 31 31 31 31 32 32 32 34 35 35 34 34 35 36 39 41 41 40 38 38 39 40 40 40 38 37 37 37 37 38 38 37 35 33 32 33 34 35 34
23 25 26 27 28 28 29 30 30 30 29 29 30 30 30 30 29 30 32 35 35 33 32 32 31 30 30 30 30 30 32 35 37 35 33 33 35 36 38 41 40 38 37 38 40 40 40 39 39 38 39 40 40 41 41 39 38 37 36 35 35 36 35
22 22 23 23 24 24 25 26 27 28 28 29 29 29 29 29 29 30 32 34 33 32 31 31 31 30 29 28 28 30 34 37 38 36 33 33 35 36 39 40 39 37 37 38 40 40 40 39 38 39 40 40 41 42 42 41 40 40 41 40 39 39 39
23 24 25 26 26 27 27 28 28 29 28 28 28 28 28 29 29 30 31 30 29 27 27 28 30 29 29 28 29 32 35 35 35 34 33 33 34 35 38 39 39 38 38 39 40 40 39 38 38 39 40 41 41 42 43 42 42 43 44 44 43 42 42
26 27 28 29 29 29 29 29 28 27 26 24 24 25 27 28 29 30 31 29 26 25 25 26 28 30 30 30 30 31 32 31 32 32 32 33 34 35 36 37 38 38 37 37 38 38 38 38 39 40 41 42 42 43 43 44 45 45 46 47 47 46 45
28 28 29 29 29 29 29 28 27 27 26 24 24 24 26 28 30 31 31 29 27 26 25 26 28 29 29 29 29 28 28 28 29 30 31 32 34 35 36 37 37 37 36 36 36 37 39 40 41 42 43 44 44 44 45 46 47 47 47 48 49 49 48
31 31 31 30 29 28 28 28 28 29 29 28 26 26 26 29 31 32 31 30 30 28 26 26 27 29 30 30 28 26 26 27 28 29 31 33 35 35 36 37 38 37 36 36 37 38 40 41 42 43 44 45 46 47 47 47 47 48 48 48 49 49 50
34 35 34 32 31 30 30 30 29 29 29 29 29 29 29 31 32 32 32 32 31 29 27 27 29 31 32 31 29 27 27 27 29 30 31 33 34 34 35 37 38 37 37 37 39 39 40 41 42 43 45 47 49 50 49 48 48 48 48 48 48 49 50
35 37 36 35 34 34 34 33 31 30 29 30 30 30 30 31 31 32 32 32 31 30 30 31 32 33 32 31 29 27 26 26 28 31 32 34 34 34 36 38 39 38 38 38 38 38 39 40 42 45 47 49 50 49 49 48 48 48 48 47 47 48 48
37 39 39 37 36 37 35 33 32 31 31 33 33 31 31 32 33 33 33 32 32 31 32 33 33 33 32 31 29 26 25 26 29 31 33 34 34 36 38 39 40 39 38 38 38 38 40 42 45 46 47 48 47 47 47 48 48 48 48 48 47 47 47
41 42 41 38 38 38 37 34 33 33 35 36 35 33 33 34 35 35 34 33 33 33 33 34 34 33 32 30 28 26 25 26 29 32 33 34 36 38 39 39 38 37 37 38 39 40 41 43 44 45 45 45 46 46 47 48 49 49 50 50 50 49 49

ECMWFFLT1_700_spd_009.txt.gz
Wind_Speed
14 15 13 10 7 4 3 4 4 3 3 2 2 2 3 3 3 4 4 4 4 4 5 5 5 5 4 4 4 5 7 8 10 11 12 13 13 13 13 13 14 14 13 11 12 12 13 13 12 12 12 10 9 11 13 16 18 19 22 24 25 24 24
14 14 13 12 8 4 2 2 3 3 2 2 2 2 3 3 3 3 3 3 3 3 3 4 3 4 3 4 4 4 4 4 5 7 9 10 11 12 12 12 12 12 12 12 11 11 11 11 12 12 12 11 10 11 11 11 10 11 13 17 22 24 24
15 14 13 12 8 3 1 1 2 2 2 2 2 3 3 4 4 4 4 4 4 4 3 3 3 3 3 4 4 4 3 3 3 3 5 6 7 9 10 10 11 11 11 10 10 9 9 9 10 11 12 12 11 11 12 11 9 9 10 11 15 20 24
15 14 12 10 6 2 3 4 5 5 5 5 4 4 4 5 5 5 5 5 5 5 4 4 3 4 4 4 4 4 3 3 3 2 3 3 4 5 6 7 8 9 9 9 8 8 8 8 9 10 11 11 11 11 12 12 11 10 8 8 10 14 19
13 12 10 8 4 3 4 6 6 7 7 6 6 6 6 6 6 6 6 6 6 5 5 5 4 4 4 4 4 3 3 3 3 3 2 2 2 3 3 4 5 6 7 7 7 8 8 9 9 10 10 10 9 10 11 12 12 12 10 10 11 13 15
11 10 8 6 3 3 4 6 7 8 8 8 8 8 9 9 8 8 8 7 7 7 6 6 6 6 5 5 4 4 3 3 2 2 2 2 3 3 4 4 4 4 5 5 5 6 7 7 7 8 8 7 7 8 8 8 9 11 14 16 16 16 15
9 8 7 5 2 2 5 6 8 9 10 11 11 11 11 11 11 11 10 10 10 10 10 10 9 9 8 8 7 6 6 5 4 3 2 1 0 2 4 4 5 5 6 6 6 6 7 7 7 8 9 8 8 8 8 7 7 8 11 15 16 16 16
8 7 5 3 1 2 5 7 9 10 10 11 12 13 13 13 12 12 13 13 13 13 14 14 13 13 12 12 11 11 10 9 9 8 7 6 4 3 2 2 2 3 3 4 5 5 6 7 7 8 9 9 9 9 9 9 9 10 11 13 15 15 16
9 7 4 2 2 3 5 7 8 8 9 10 10 11 12 12 12 12 13 14 14 15 15 15 15 15 14 14 14 14 14 13 13 12 11 10 8 7 6 5 5 5 4 4 5 5 5 5 5 6 6 6 7 7 8 8 9 10 12 14 15 15 16
9 7 5 5 5 4 4 6 8 8 7 7 8 8 9 10 10 11 11 12 12 13 14 14 14 13 13 14 14 14 14 13 13 13 12 12 11 10 9 8 7 7 7 6 6 6 6 6 6 7 6 6 5 5 5 6 7 8 10 12 13 15 15
11 9 8 8 7 6 5 5 7 7 6 4 4 5 5 6 7 8 9 9 9 10 10 10 10 10 10 11 11 11 12 12 12 12 12 12 12 11 11 10 10 10 9 8 7 7 7 7 7 7 7 7 6 5 4 5 5 5 7 9 11 12 13
13 13 12 11 9 8 8 7 6 5 4 3 1 1 1 2 3 4 5 5 5 6 6 6 6 6 7 7 7 8 8 9 9 10 10 11 11 11 11 11 11 11 10 10 11 11 11 11 10 10 10 9 8 7 6 6 6 6 6 8 10 11 12
15 16 16 15 12 11 11 10 9 7 5 4 4 4 4 3 2 1 1 1 1 1 1 2 2 2 2 3 4 4 5 5 6 7 7 8 9 10 10 10 11 11 10 10 10 11 12 13 13 13 13 13 12 11 10 8 8 9 9 9 10 12 12
17 18 18 17 15 14 13 13 13 12 11 10 8 6 6 6 6 6 5 5 4 4 4 3 2 2 2 3 3 3 4 4 4 5 6 7 8 9 10 11 11 11 11 11 10 11 11 12 12 13 13 14 14 13 12 11 10 11 12 12 13 14 15
19 19 19 17 17 17 17 17 18 18 17 15 13 11 10 9 9 9 9 9 9 8 8 7 7 6 6 7 7 7 8 8 7 7 8 9 9 10 10 11 12 13 13 13 12 12 12 12 12 14 15 16 16 16 15 15 14 13 14 15 15 16 17
22 20 20 19 19 19 20 20 20 21 20 19 18 18 16 14 13 12 11 12 12 11 10 10 10 11 11 11 11 11 12 13 13 12 12 12 12 13 13 14 14 15 16 16 15 15 14 14 16 17 18 19 19 19 19 18 18 17 16 17 17 18 18
25 23 23 22 22 21 21 20 20 21 20 20 22 23 21 19 18 16 15 15 15 14 12 12 12 12 13 14 15 15 15 15 16 15 15 15 15 15 16 17 17 17 17 18 18 18 18 18 19 19 20 20 20 19 19 19 20 20 19 18 18 19 20
24 25 25 25 23 22 20 20 20 20 19 19 22 23 23 23 23 21 20 19 18 16 15 14 13 13 13 14 15 16 16 17 17 17 16 17 17 17 18 19 20 20 20 20 21 21 22 23 23 22 22 22 22 21 20 19 20 21 22 21 20 21 21
27 26 27 26 25 24 23 22 21 20 18 18 18 20 22 24 26 26 26 25 24 21 19 19 17 14 12 12 13 15 16 17 17 17 16 17 18 20 21 21 21 22 22 23 23 24 25 27 27 27 26 25 24 23 21 20 20 21 22 23 23 22 22
27 24 24 26 28 29 28 27 24 20 18 18 19 21 22 23 24 27 30 30 29 27 24 20 16 13 11 12 13 14 16 17 18 18 17 18 19 21 22 22 23 24 24 24 25 26 27 29 30 30 30 29 28 26 24 23 23 23 24 24 24 24 23
21 19 21 24 28 30 31 31 31 27 23 22 21 20 20 20 22 25 30 30 28 27 24 18 14 12 13 14 15 16 17 17 18 19 19 20 21 21 22 23 25 25 25 25 26 27 28 30 31 31 32 32 31 30 29 27 27 27 27 27 26 26 25
20 21 23 25 27 29 30 30 30 29 26 24 21 18 19 21 23 24 24 23 22 22 22 19 15 15 16 18 20 22 22 20 20 21 21 21 22 22 22 23 24 25 26 26 28 29 30 31 32 32 33 34 33 32 31 32 31 31 30 30 29 27 26
17 19 21 23 24 26 26 25 24 23 23 23 22 21 21 22 23 22 20 18 18 18 19 19 18 19 20 22 25 26 27 26 25 25 24 24 23 23 24 24 25 27 27 28 29 30 31 32 33 33 34 34 33 32 32 33 34 33 33 32 31 30 28
12 13 15 18 20 22 23 24 24 24 23 22 20 18 17 16 16 16 16 16 16 17 17 18 20 21 23 25 28 29 30 29 28 28 28 27 25 25 26 27 28 29 29 29 30 31 31 32 33 34 35 35 33 32 33 34 33 33 34 33 32 31 30
14 15 16 17 18 20 20 20 19 19 18 17 15 13 14 15 15 16 17 18 19 19 19 20 22 23 25 27 28 29 30 30 30 31 31 29 28 28 28 29 30 30 30 29 29 29 31 31 32 33 34 34 33 33 33 34 33 33 33 33 32 31 31
18 19 20 20 20 20 19 17 16 16 16 16 16 17 18 19 19 20 22 23 23 23 23 23 24 24 25 26 28 30 31 32 32 33 32 31 30 29 29 31 33 32 31 30 29 30 31 31 31 32 32 33 33 34 34 34 33 33 34 34 34 32 32
18 18 19 20 20 20 19 18 18 19 19 20 21 22 23 23 23 25 26 27 26 26 26 26 27 27 26 27 29 31 31 31 32 33 32 31 31 31 31 33 36 36 35 34 33 32 32 31 30 30 31 32 33 34 34 34 33 33 34 35 35 35 35
17 16 18 20 20 20 19 19 19 20 20 21 22 24 25 26 27 28 30 30 28 27 27 28 29 29 30 30 30 29 29 30 31 32 31 31 31 32 33 35 37 39 39 37 35 33 32 31 31 31 32 33 33 34 34 34 34 34 36 36 37 37 37
17 17 17 18 18 18 18 18 19 19 19 19 20 21 23 24 25 27 29 29 29 28 28 28 29 29 29 29 28 27 28 29 29 30 31 32 33 35 36 36 37 39 39 37 35 33 32 31 32 34 34 34 34 35 35 35 36 37 38 38 39 39 40
19 18 18 17 17 18 18 19 20 21 21 22 22 22 24 25 26 27 28 28 28 28 28 28 27 27 27 26 25 25 26 26 27 29 31 34 35 37 37 37 38 39 38 35 33 31 31 31 32 34 35 35 35 35 35 36 38 39 40 40 40 41 41
20 20 19 20 20 20 19 20 22 23 24 24 25 25 25 26 27 27 27 27 27 26 25 25 24 24 25 25 25 24 25 26 26 28 31 33 35 36 37 38 38 38 36 34 32 31 31 31 33 35 36 36 35 35 36 37 39 39 40 40 41 41 42
23 22 22 22 22 21 20 20 21 24 25 25 26 26 27 27 28 27 27 26 26 25 24 23 23 24 25 25 26 25 26 26 27 29 30 31 33 35 37 37 36 35 34 32 32 31 31 32 34 35 35 35 36 37 38 39 39 39 40 40 40 41 42
25 26 25 25 24 22 20 20 21 23 25 25 26 27 28 29 30 30 29 28 27 26 25 24 24 25 25 26 27 27 27 28 29 30 31 32 34 35 34 34 34 34 33 32 31 31 32 34 35 35 35 37 38 40 40 40 40 40 41 41 41 42 42
28 29 29 29 28 26 23 22 22 23 25 27 28 30 30 30 31 32 31 31 29 28 27 26 26 26 27 27 28 29 29 29 30 30 32 33 34 34 33 31 32 33 32 31 32 34 36 36 36 37 38 39 40 40 40 40 41 42 43 43 43 43 43
29 29 30 31 32 31 29 27 25 24 25 28 30 32 32 31 32 32 32 32 30 29 27 27 27 27 28 29 30 30 31 30 30 30 31 31 31 31 30 29 29 30 30 31 33 35 36 37 37 38 40 41 41 41 41 42 43 43 43 44 44 44 43
32 31 31 32 33 34 33 32 30 28 28 29 31 31 32 32 31 31 32 32 31 29 28 28 28 29 30 31 32 32 31 31 30 30 28 26 25 25 25 25 27 29 30 31 33 35 36 37 38 40 41 41 42 42 42 43 43 43 43 44 44 44 44
32 32 32 33 33 34 34 33 33 32 31 31 32 32 33 33 32 31 31 31 31 31 30 30 31 31 32 33 33 32 32 32 31 29 25 21 20 21 22 24 26 29 31 33 35 36 37 38 38 38 39 40 40 41 41 42 42 43 44 45 45 46 46

ECMWFFLT1_700_spd_015.txt.gz
Wind_Speed
12 8 8 10 12 12 11 8 6 5 4 6 8 10 11 12 13 14 14 13 12 11 11 11 12 13 15 16 17 16 14 14 15 14 15 15 13 14 16 15 15 15 15 15 15 15 15 14 14 13 14 14 14 14 13 12 12 12 12 12 13 13 14
12 8 7 9 10 11 11 8 7 5 5 6 7 9 10 11 11 12 11 10 9 9 9 9 9 9 11 12 14 16 16 17 17 15 15 15 14 15 16 15 15 15 14 15 15 15 15 15 14 14 13 13 13 13 14 13 12 12 13 13 13 13 12
13 9 6 8 9 10 10 8 6 5 5 5 5 7 8 9 9 8 8 7 7 7 8 8 7 7 8 8 9 11 12 14 15 16 16 16 15 15 16 15 14 13 13 14 14 14 15 15 15 14 13 12 11 12 12 12 12 12 12 12 12 13 14
14 10 6 7 8 9 9 7 6 5 4 4 4 5 7 7 7 7 6 6 7 7 7 7 8 7 6 6 6 7 7 8 10 11 12 13 13 13 13 13 13 13 13 13 13 13 13 12 12 12 11 11 10 11 11 10 11 11 11 11 11 13 13
17 12 7 6 7 8 8 6 5 4 4 3 3 4 5 6 6 6 6 7 7 7 8 7 7 7 7 6 6 6 6 6 6 7 8 8 9 9 9 9 9 9 9 9 9 10 10 9 9 9 9 9 9 9 9 8 8 8 8 8 9 10 10
19 15 9 6 7 7 7 6 4 3 3 2 2 3 4 5 6 7 7 8 8 9 9 9 8 8 7 7 7 6 6 6 6 6 6 6 6 6 5 5 5 5 5 6 6 6 7 7 7 7 6 7 7 7 8 7 7 7 8 8 8 7 7
21 18 11 7 6 5 5 5 4 3 2 0 1 2 3 4 5 6 7 8 9 9 9 9 8 8 7 7 7 6 6 6 6 6 5 5 5 5 5 5 5 5 5 5 5 6 6 6 6 6 6 6 7 8 9 9 9 9 9 9 9 9 9
22 20 14 8 6 4 3 3 2 2 2 2 2 2 3 4 5 5 7 8 8 9 9 8 7 7 7 6 6 6 5 5 4 3 3 3 3 2 2 2 2 2 2 1 1 2 2 2 2 3 3 3 4 6 8 9 10 9 9 9 9 10 10
25 23 16 9 6 4 2 1 1 3 4 5 5 5 5 5 6 6 7 8 9 10 10 10 10 10 10 10 10 10 10 9 9 9 9 8 8 8 7 7 6 6 6 6 5 4 4 3 3 3 3 3 3 3 4 6 7 8 8 8 8 8 9
26 26 18 10 7 6 5 4 4 6 7 8 8 8 8 8 8 10 10 11 12 12 13 13 12 12 12 12 12 12 12 12 12 12 12 11 11 10 10 9 9 8 8 7 6 6 6 5 5 5 5 5 5 4 4 5 6 7 7 7 8 8 9
26 27 22 13 9 8 7 6 6 7 8 9 10 10 10 10 10 11 12 12 13 12 12 12 11 11 11 10 11 10 10 10 10 10 10 10 10 9 9 8 8 7 7 6 6 5 5 5 5 5 6 6 5 5 5 6 6 6 7 8 8 9 10
26 28 24 15 12 10 9 8 7 8 7 8 9 9 10 10 10 10 11 11 11 11 10 10 9 9 9 8 8 8 8 8 8 8 7 7 6 6 6 6 5 5 5 4 4 5 4 4 3 4 4 5 5 5 5 6 8 8 8 8 9 9 11
30 29 22 14 14 13 11 10 9 9 8 8 8 8 8 9 8 8 8 8 8 8 7 7 6 6 5 5 5 5 4 4 4 4 3 3 3 3 3 3 3 3 3 3 3 3 3 3 3 3 4 5 6 6 6 6 8 9 9 10 10 11 12
34 31 22 16 16 15 15 13 11 11 10 9 8 7 7 8 7 7 7 6 5 5 4 4 3 2 2 1 1 1 1 1 1 1 2 3 3 4 5 5 6 6 5 5 5 5 5 5 6 6 6 7 7 7 7 7 7 9 10 11 12 13 13
33 31 24 19 18 17 19 17 15 14 12 11 10 9 8 7 7 7 7 6 6 6 5 5 6 6 6 6 6 6 6 6 6 6 6 6 7 8 8 8 9 9 9 9 9 9 9 9 9 10 10 10 10 9 9 9 8 8 9 11 12 13 14
29 30 27 23 21 21 23 21 19 18 15 14 12 10 9 9 9 9 8 8 8 8 9 9 9 10 10 10 11 12 12 12 11 11 10 10 10 10 10 11 11 12 12 12 13 13 13 14 14 14 14 14 14 13 13 12 11 10 10 12 13 13 14
26 29 29 26 25 27 26 25 24 22 20 18 16 13 12 12 11 10 9 9 9 9 10 10 10 11 11 12 13 13 14 15 15 15 15 14 13 13 13 13 13 14 15 15 15 16 16 17 17 17 18 18 18 18 17 17 16 15 14 14 15 16 16
25 28 28 27 29 32 30 28 27 25 23 21 20 19 19 17 16 14 12 10 9 10 10 10 10 10 12 13 14 15 15 16 17 18 18 18 17 17 16 16 16 16 17 17 18 19 20 20 20 19 20 20 21 21 22 21 21 20 20 19 19 19 18
24 27 29 30 34 37 35 33 32 30 27 24 23 22 21 21 20 17 15 13 13 13 12 12 12 13 14 15 16 18 19 20 21 22 22 22 21 19 18 18 18 18 18 20 21 22 23 23 23 22 22 22 23 23 24 25 25 25 24 24 23 23 22
23 26 30 34 38 39 37 35 35 34 31 28 27 25 22 20 18 14 13 15 17 15 14 15 16 17 20 20 20 22 24 25 26 25 25 24 23 22 20 19 19 20 21 22 23 24 25 26 26 26 26 25 25 25 26 27 28 28 28 28 27 26 26
25 28 30 34 37 37 37 36 35 34 32 30 30 26 21 19 18 17 16 17 18 16 15 17 19 20 22 23 24 28 30 30 29 28 27 26 25 23 20 19 18 19 21 22 23 24 26 27 28 28 28 28 27 27 28 28 29 30 30 31 31 30 29
27 30 29 32 36 36 35 36 36 34 31 28 26 24 21 19 18 20 20 20 21 19 17 17 20 23 23 24 26 28 30 31 30 28 28 27 26 24 21 18 17 18 20 22 23 25 26 28 30 30 30 30 30 30 30 30 31 31 31 32 32 32 31
22 23 24 26 28 27 24 25 28 29 27 22 21 22 21 19 20 21 21 20 20 20 17 15 18 22 23 23 24 22 22 24 26 28 28 29 27 25 22 21 20 21 23 25 25 26 27 29 30 31 32 32 33 33 34 33 33 33 33 34 34 34 34
17 17 17 16 16 15 14 13 15 19 19 19 21 22 19 18 20 21 19 18 17 17 16 15 17 19 18 18 17 16 15 16 19 24 26 28 29 28 27 27 28 28 28 27 27 27 28 30 30 30 32 33 35 36 37 37 36 35 35 36 36 37 37
15 15 13 11 11 11 10 10 11 13 15 18 22 22 17 16 18 18 17 17 15 13 13 13 15 15 15 15 15 15 16 16 17 20 22 25 27 28 30 30 30 31 30 29 28 29 29 31 31 31 32 34 36 38 38 38 38 37 36 37 38 39 40
16 15 14 12 12 11 11 11 11 12 13 14 16 17 16 15 15 15 15 15 13 11 12 13 15 15 16 17 18 19 19 19 20 21 23 24 26 27 28 28 29 30 31 30 30 29 30 32 33 34 35 35 37 39 39 39 39 39 40 40 40 40 40
16 16 15 14 13 13 12 12 12 12 13 13 14 15 15 15 15 14 13 12 12 13 14 15 17 18 19 20 22 23 23 23 24 25 25 26 27 27 27 28 29 30 30 30 30 31 32 33 34 34 34 35 38 40 40 41 41 41 42 42 41 41 41
18 17 16 15 14 14 14 14 15 15 15 15 16 16 16 16 16 15 15 14 15 16 17 19 21 22 23 24 25 26 26 27 27 27 27 28 28 28 28 28 28 28 29 29 30 32 33 34 34 34 34 37 40 40 40 40 41 42 43 43 42 42 42
20 19 18 17 16 16 16 17 17 18 18 18 19 19 19 19 19 19 19 19 19 19 20 21 22 23 23 24 25 25 26 27 27 28 28 28 28 28 28 28 27 27 28 28 29 31 32 33 34 35 36 38 39 39 39 40 40 42 43 43 43 43 42
21 20 20 19 18 18 18 18 18 20 21 22 22 23 23 23 23 22 22 21 21 21 22 22 23 23 23 23 24 25 26 27 28 27 27 27 27 27 27 27 27 28 28 28 29 31 32 33 34 35 36 37 38 39 40 41 41 43 43 43 43 42 42
24 22 21 20 20 20 20 20 20 21 22 23 24 24 24 24 23 23 23 23 23 23 23 24 24 24 24 24 25 25 26 27 27 26 26 26 26 26 26 26 28 28 29 30 31 32 33 34 35 36 37 38 39 40 41 42 43 43 44 43 43 42 42
24 23 22 21 21 21 22 21 21 22 23 23 23 23 23 23 23 23 23 23 23 24 24 25 25 25 25 26 27 27 28 28 28 28 28 27 27 27 28 28 29 29 30 32 33 34 35 36 37 37 38 39 41 41 42 42 43 43 42 42 42 42 42
24 23 23 23 23 23 23 23 23 24 24 24 25 24 24 24 24 23 23 22 23 23 24 24 25 26 27 28 29 29 30 30 30 31 31 30 30 30 30 30 31 31 32 33 34 35 36 37 38 38 39 40 41 41 41 42 42 42 42 42 43 43 43
24 24 24 24 25 25 26 25 25 26 27 27 26 26 26 26 25 24 23 23 23 23 24 24 25 26 28 29 30 31 31 31 31 32 32 32 32 32 32 32 33 33 34 34 35 36 37 37 38 39 39 40 39 40 40 41 41 42 43 43 43 43 43
24 25 25 25 25 27 29 29 29 29 29 28 27 26 26 26 26 25 25 26 26 26 26 27 27 28 29 30 31 31 31 32 32 32 32 33 33 34 34 34 35 35 35 35 36 37 37 38 39 39 38 38 38 39 40 40 41 42 42 43 43 43 43
26 27 28 27 27 28 30 32 33 32 31 30 29 28 27 27 27 27 27 28 28 29 29 30 30 31 31 32 32 31 31 31 31 31 32 33 35 36 37 37 37 38 38 38 39 39 39 39 38 38 38 38 38 38 39 39 40 40 41 42 42 43 43
30 30 30 30 31 30 31 33 34 34 33 33 32 31 31 30 29 29 29 29 30 31 31 31 31 32 32 33 33 32 31 31 31 32 33 34 35 37 38 39 39 40 40 40 40 40 40 39 38 38 38 38 38 38 38 38 38 39 40 41 42 42 42

ECMWFFLT1_700_spd_021.txt.gz
Wind_Speed
12 13 14 15 15 14 15 16 17 17 15 13 11 10 9 8 7 6 5 5 6 7 7 8 9 9 9 10 11 13 14 14 13 12 12 11 11 10 8 7 8 9 10 9 8 9 11 10 9 9 10 10 10 10 10 10 9 9 8 8 8 8 8
13 13 13 14 14 15 15 16 17 17 16 14 11 10 9 9 7 5 4 4 4 4 5 6 6 6 6 6 7 9 12 12 12 11 11 10 10 10 8 7 7 7 7 7 8 8 9 9 9 10 10 11 11 11 10 9 9 8 8 8 8 8 9
15 15 15 14 14 15 15 15 16 17 16 14 12 10 9 8 7 6 4 3 2 2 3 3 3 3 3 3 4 6 8 9 10 11 11 10 9 9 9 8 7 7 6 7 7 8 8 8 9 10 10 11 10 9 8 8 8 8 8 8 8 8 8
17 17 17 16 15 15 15 15 15 16 15 14 13 10 8 7 7 5 3 2 0 1 1 1 2 2 2 2 2 2 4 5 6 8 10 10 10 9 9 8 8 7 7 6 7 7 7 8 8 9 9 8 7 6 6 6 7 8 7 7 7 7 6
20 20 20 19 17 16 15 15 16 16 14 13 12 11 8 6 5 4 2 1 1 2 2 2 2 1 1 2 2 1 1 1 2 3 4 6 6 6 6 6 6 5 5 4 5 5 5 6 6 5 5 5 4 4 4 4 5 6 6 6 6 6 6
22 22 22 21 20 18 15 14 14 15 13 12 11 10 8 5 3 2 2 1 1 3 3 3 3 3 3 3 3 3 3 3 3 4 3 3 3 2 3 3 3 3 3 2 2 2 2 2 2 2 3 3 4 3 4 4 5 6 6 7 7 8 8
24 24 23 24 23 19 15 13 12 13 12 10 10 8 6 4 2 2 2 2 2 2 3 3 4 4 4 4 4 4 3 3 3 4 4 4 4 4 3 3 3 3 3 2 1 1 1 1 2 3 3 4 4 4 4 4 4 5 5 6 6 6 7
25 23 24 27 24 18 15 12 11 12 11 9 8 6 4 3 2 3 3 3 2 2 2 3 3 4 4 4 4 4 3 3 2 2 3 3 3 3 3 3 3 2 2 2 2 2 2 1 1 2 2 2 2 2 1 1 1 2 2 2 3 3 3
23 23 25 24 20 16 14 11 11 10 9 8 6 3 2 3 3 4 5 4 3 3 4 5 6 6 7 7 7 7 6 6 5 5 5 5 5 5 5 5 5 4 4 4 4 3 3 3 3 2 1 1 1 0 1 0 0 1 1 2 2 3 3
21 21 22 18 15 16 15 12 11 9 6 6 4 1 3 4 5 5 6 6 6 7 8 10 11 12 12 12 12 11 11 10 10 9 9 9 9 8 7 7 7 6 5 5 4 4 4 4 4 3 2 2 1 1 1 1 1 2 2 3 4 4 4
16 18 18 15 14 16 15 12 10 7 4 3 2 2 4 5 7 7 8 10 11 12 12 13 14 14 15 14 14 13 13 13 12 11 11 11 10 9 8 7 7 6 5 4 3 3 2 2 2 2 2 1 1 1 2 2 3 3 4 5 6 7 7
13 15 15 14 15 17 16 12 9 7 4 3 3 4 6 7 9 10 11 13 14 14 14 14 14 14 14 15 14 14 13 12 12 11 10 10 9 8 7 6 5 5 4 3 3 1 1 1 1 1 1 2 2 3 4 5 6 6 7 8 8 9 10
10 11 13 14 14 17 16 13 10 8 5 5 6 7 9 9 10 11 12 13 14 14 14 14 14 14 13 13 14 13 12 11 11 10 8 7 6 5 5 4 3 2 2 2 2 2 3 3 3 4 4 4 5 6 7 8 8 9 9 10 10 11 11
9 10 11 12 12 15 16 14 14 12 8 8 8 9 11 11 11 11 12 13 13 13 14 14 14 13 13 13 12 12 11 10 9 8 6 5 4 2 1 1 1 2 3 4 4 5 5 6 6 6 6 7 7 8 9 10 11 11 12 12 12 13 13
8 10 11 11 10 12 14 15 17 16 12 11 10 10 12 13 13 13 13 13 13 13 13 13 13 13 12 12 11 10 10 9 8 6 5 4 3 3 4 4 5 5 6 6 7 7 7 8 8 9 9 9 10 10 11 12 13 14 14 15 15 15 15
7 8 9 10 9 10 12 15 19 19 16 15 14 12 13 14 15 16 16 16 16 15 15 14 13 13 12 11 10 10 9 8 8 7 6 6 6 6 7 8 8 9 9 10 10 10 10 10 11 11 12 12 12 12 12 13 14 15 16 16 17 17 18
8 8 8 10 9 11 13 16 19 20 19 18 17 16 15 15 15 16 17 17 17 17 17 16 15 14 13 12 12 11 11 10 10 9 9 9 9 9 10 10 11 11 12 12 13 13 14 14 14 14 14 14 14 14 14 14 15 16 17 17 18 19 19
11 9 9 10 11 13 16 19 20 21 20 20 19 19 18 18 17 18 18 18 18 18 17 17 16 16 16 15 15 14 13 13 12 11 11 11 11 12 12 12 13 14 14 15 15 16 16 17 17 17 17 17 17 17 18 18 18 18 19 19 20 21 22
14 12 11 11 12 14 17 20 22 22 22 22 22 22 21 21 21 21 21 21 20 19 19 18 17 17 17 17 16 16 15 13 12 12 12 12 13 14 14 14 15 16 18 19 19 18 18 18 18 19 20 20 20 20 20 20 20 21 22 22 23 23 24
17 16 15 14 14 15 17 20 23 24 25 25 25 25 25 25 26 26 25 24 22 21 20 20 19 19 19 18 18 17 16 15 14 13 13 14 15 17 17 17 16 17 19 19 18 17 17 18 19 19 20 21 21 21 22 22 23 25 26 27 27 28 28
19 19 18 16 15 15 17 20 23 25 26 27 28 28 28 30 31 30 27 26 24 22 21 21 21 21 21 20 20 19 18 17 16 16 17 18 19 20 20 20 19 19 19 18 17 17 18 19 20 21 22 23 23 24 25 27 28 29 30 31 32 32 33
20 21 20 19 17 16 17 20 24 26 28 28 29 30 31 33 34 34 32 29 27 25 24 24 24 24 23 22 22 22 21 20 20 20 20 21 21 21 21 21 20 19 19 19 19 20 20 21 23 24 26 27 27 28 29 29 29 30 32 33 34 34 34
19 20 20 20 19 18 18 21 25 28 30 31 32 33 35 35 36 37 37 34 31 30 29 28 27 27 26 25 25 24 23 21 22 23 22 21 21 21 21 20 18 16 17 19 20 21 22 23 25 26 27 28 29 29 30 30 30 31 32 33 34 34 34
18 19 20 20 21 21 21 22 25 28 30 31 33 35 37 39 38 38 38 37 37 36 34 33 33 31 29 27 27 26 24 22 22 23 22 20 20 20 19 18 16 16 17 18 20 21 23 25 25 26 28 29 29 30 31 32 32 32 33 34 34 33 32
19 20 21 21 22 22 21 23 24 26 27 28 30 33 35 37 39 38 37 37 39 40 39 39 37 32 28 26 27 26 24 23 23 22 20 19 19 19 18 16 15 16 17 18 19 21 23 25 26 27 28 29 30 32 33 33 34 34 34 34 34 33 31
21 21 22 22 23 22 22 22 23 24 24 25 26 28 29 31 34 34 34 35 37 40 41 41 37 31 28 27 26 24 24 23 22 20 19 19 19 19 17 16 16 17 18 19 21 22 24 26 27 28 30 31 32 32 33 34 34 34 34 33 33 33 33
22 22 22 23 23 23 23 23 23 23 24 24 24 24 24 25 27 28 30 31 33 35 39 40 38 34 30 28 25 24 24 22 20 18 18 18 18 18 17 17 19 20 22 23 24 25 26 27 28 29 30 31 32 32 33 33 33 33 33 34 34 35 35
25 24 24 23 23 24 24 24 24 24 24 23 23 22 22 22 22 24 25 25 26 28 32 34 33 31 27 25 25 25 23 21 19 19 19 19 19 19 20 21 22 23 24 25 25 26 26 27 29 29 30 30 31 31 32 33 33 34 34 35 35 36 37
28 27 26 25 25 25 26 26 26 25 24 23 22 22 21 21 21 22 22 21 22 25 27 26 24 24 24 24 24 24 22 20 20 20 20 21 21 22 23 23 23 24 25 26 26 27 27 28 28 29 29 30 31 32 33 34 35 35 36 36 36 37 38
29 29 28 27 26 26 26 27 27 26 24 23 22 22 22 21 21 21 21 21 22 24 24 22 19 21 24 24 24 23 21 21 21 21 22 22 23 24 24 25 26 26 27 28 28 28 28 29 29 30 31 32 33 34 35 35 36 36 37 37 38 38 39
28 29 29 29 28 27 26 26 26 26 24 24 23 22 22 21 22 22 21 21 21 21 21 21 20 21 23 24 23 23 22 22 22 23 23 23 24 24 25 26 27 28 29 29 30 30 30 30 31 31 32 33 34 34 35 36 36 37 37 38 39 40 41
25 27 29 30 30 29 28 27 26 26 25 25 24 23 22 22 22 23 22 22 22 22 22 22 22 23 23 24 24 24 24 24 24 23 23 23 24 25 26 27 28 29 29 29 30 30 31 31 31 31 31 32 33 34 35 36 37 38 39 40 41 41 42
23 25 28 30 31 31 30 28 26 27 27 26 24 23 23 23 22 23 23 23 23 24 24 24 24 24 24 25 25 25 25 24 24 23 23 24 25 27 28 29 30 30 30 30 30 31 31 31 31 31 32 33 34 35 36 37 39 40 41 42 43 43 44
22 22 25 29 32 33 32 30 28 27 27 26 25 24 24 24 24 24 24 24 24 23 23 24 24 24 24 25 25 25 25 25 25 25 25 26 28 29 30 31 32 32 32 32 32 32 32 32 32 32 33 35 36 37 39 40 41 43 44 44 45 45 45
23 22 24 27 30 32 33 34 32 30 29 28 27 26 25 26 26 26 26 25 24 24 23 24 24 24 25 25 25 25 25 25 26 27 27 29 30 31 32 33 34 34 34 34 34 34 34 34 35 35 36 37 38 40 41 42 43 44 45 45 45 45 45
27 26 26 27 29 31 32 33 34 34 32 32 31 31 30 29 28 27 26 25 24 24 25 25 25 25 25 25 25 25 26 27 28 29 30 31 33 33 34 35 35 35 36 36 36 36 36 36 37 37 38 39 40 41 42 42 43 43 44 44 44 44 43
33 31 29 29 31 33 33 32 33 33 34 35 35 35 34 33 31 29 27 26 26 27 27 27 27 26 26 26 27 28 29 30 31 32 33 34 35 35 36 36 37 37 38 38 38 38 37 37 37 37 38 40 42 43 43 43 43 44 44 43 42 42 41

ECMWFFLT1_700_spd_024.txt.gz
Wind_Speed
8 10 10 12 13 14 15 16 16 15 15 16 15 13 11 9 6 4 4 5 6 7 9 10 11 12 13 14 14 14 14 14 14 14 14 16 16 15 13 11 10 10 10 10 10 11 12 12 12 12 12 11 10 10 9 10 9 9 9 9 9 10 11
9 10 11 13 14 15 16 17 18 16 15 15 15 13 11 9 6 4 4 4 5 6 7 8 9 10 11 11 11 12 12 13 14 15 15 14 14 13 11 10 9 9 10 10 10 11 10 10 10 11 11 10 9 10 10 10 10 9 9 8 8 9 11
10 11 12 13 15 16 17 18 19 18 16 15 15 14 11 9 6 4 3 3 4 5 6 7 8 8 9 8 8 8 9 10 11 12 13 13 12 11 10 9 9 8 8 8 8 9 8 8 9 10 10 8 8 9 9 9 9 8 8 7 8 8 9
12 12 13 14 16 17 18 19 19 19 17 15 14 13 11 8 6 3 3 3 4 5 6 6 7 7 7 6 6 6 7 7 8 9 10 11 10 9 9 9 8 8 7 6 7 7 7 8 9 9 9 8 7 7 7 7 7 7 7 6 6 6 6
14 14 15 16 18 19 19 20 19 18 17 15 12 12 10 8 6 3 3 4 4 6 6 6 7 7 7 6 6 6 6 6 7 8 9 9 9 9 8 7 7 7 6 6 6 7 7 8 8 7 7 6 5 5 5 5 5 5 5 5 5 5 6
15 16 18 19 20 21 20 21 20 18 16 14 11 10 9 7 5 4 4 4 5 6 7 7 8 8 8 8 8 8 8 8 7 7 8 7 8 8 7 7 8 8 8 9 9 9 8 8 7 5 4 4 4 4 4 4 5 5 6 6 7 7 7
17 19 21 22 23 22 21 22 21 17 15 13 10 9 8 6 4 4 5 5 6 6 7 8 8 9 9 9 10 10 10 10 9 9 9 9 9 9 9 9 9 9 10 10 10 9 9 8 7 6 5 4 3 3 3 3 4 5 5 6 6 6 6
19 19 20 22 23 22 21 20 17 13 13 12 9 7 6 5 4 4 5 6 6 7 7 8 8 9 10 10 10 11 11 11 11 11 11 11 11 11 10 10 10 9 9 9 9 9 8 8 7 7 6 5 3 2 2 2 2 3 3 4 4 4 4
18 16 18 21 21 19 18 16 12 11 12 12 9 6 5 4 4 4 5 6 6 7 7 8 8 9 10 10 11 12 12 12 12 12 11 11 10 10 9 9 9 8 8 7 7 7 7 6 6 6 5 5 5 3 1 1 2 2 3 3 3 3 4
15 14 16 18 17 16 14 12 11 11 12 11 8 5 4 4 4 5 5 6 6 7 7 9 9 10 11 11 12 13 12 12 12 11 11 11 10 10 9 9 9 8 7 6 6 5 5 5 4 4 4 4 4 3 1 1 2 2 3 3 4 4 5
13 13 14 14 14 13 12 10 11 12 11 9 7 4 3 4 4 5 5 6 7 8 9 11 12 12 13 14 15 15 15 14 13 13 13 12 12 11 10 10 9 8 7 6 5 5 4 4 3 3 3 3 3 2 1 1 2 3 4 5 6 6 7
9 10 11 12 12 11 10 11 12 12 9 7 5 3 3 4 5 5 6 8 9 10 11 12 13 13 14 15 16 16 16 16 15 15 14 13 12 11 10 9 8 7 6 6 5 4 3 3 3 2 2 1 1 0 1 3 5 5 6 7 8 9 9
9 10 10 11 11 9 10 13 13 12 8 6 4 3 4 5 6 7 8 10 11 11 12 13 13 13 14 15 15 16 16 16 16 15 14 13 11 10 10 8 7 6 5 4 3 2 2 2 1 1 2 2 3 3 4 6 7 8 9 10 11 11 12
10 11 11 11 10 10 12 14 14 12 9 6 5 5 6 6 7 9 10 11 12 12 13 14 14 14 14 14 14 15 15 14 14 14 12 12 10 9 8 7 7 6 5 5 4 4 3 3 3 4 4 5 6 6 7 8 9 10 11 11 12 13 13
9 10 11 10 10 10 12 14 15 14 11 8 7 8 8 9 9 10 10 11 12 13 13 14 14 14 14 13 13 13 13 13 12 12 11 11 10 8 8 7 6 6 6 6 6 6 6 6 6 6 7 8 8 9 9 9 10 10 11 11 12 13 13
7 8 9 8 9 10 12 14 16 16 14 12 11 11 12 12 11 11 11 12 12 12 13 12 12 12 12 12 11 11 10 10 9 9 9 9 9 8 8 8 8 7 7 6 6 6 7 7 8 8 9 9 10 11 11 11 12 12 12 12 13 14 14
9 9 8 7 8 10 13 15 16 17 16 16 15 13 14 14 14 15 14 13 13 13 13 13 12 12 11 11 11 11 10 9 9 9 8 8 8 8 8 9 9 8 8 8 8 8 8 9 9 10 10 11 11 12 13 14 14 14 14 14 15 16 16
11 11 10 8 8 10 13 16 16 17 18 20 19 17 16 16 16 17 17 16 16 16 15 15 15 14 14 13 13 13 12 12 12 12 11 11 10 10 11 11 11 11 10 10 11 11 12 13 14 14 13 13 12 13 14 14 15 15 15 17 18 19 20
13 13 12 11 9 10 13 16 17 17 20 23 22 20 19 19 18 19 19 19 19 19 19 18 18 17 17 16 16 15 15 15 15 15 14 13 13 13 13 13 13 13 13 13 14 14 14 16 16 15 14 14 14 14 14 15 15 16 18 21 22 23 23
15 14 13 12 11 10 12 16 18 20 21 24 24 23 23 22 21 21 20 20 21 21 21 21 21 20 20 20 19 19 19 19 18 18 17 17 16 15 16 15 15 15 15 16 16 15 14 15 15 14 14 15 16 16 16 17 18 19 21 23 24 25 25
16 15 14 13 13 12 12 15 18 21 23 25 25 25 25 25 24 24 23 23 23 23 24 24 24 23 23 22 22 22 22 21 21 20 20 19 19 18 18 18 17 17 17 18 18 17 17 16 16 16 16 17 17 17 18 19 20 20 22 23 24 26 27
15 16 15 14 14 14 14 15 18 21 24 26 26 27 27 27 27 27 27 27 27 27 27 27 27 27 26 26 25 24 24 24 23 23 23 22 22 21 21 20 20 19 18 18 19 19 19 18 18 17 17 17 17 17 18 20 20 21 22 25 27 28 28
15 16 16 16 16 15 15 16 18 20 23 25 27 28 29 29 30 30 30 30 31 31 29 29 29 29 29 29 29 28 27 27 26 25 25 24 23 23 23 22 21 19 18 18 19 18 18 17 17 17 17 17 17 18 19 21 22 23 24 26 27 28 27
14 16 17 18 18 17 17 17 18 19 21 24 26 28 30 30 31 32 32 33 34 34 33 32 32 32 31 31 32 31 30 30 29 28 27 26 25 25 24 22 19 18 17 16 16 16 16 16 16 17 18 18 19 19 20 22 24 25 26 27 28 28 27
14 17 18 19 19 19 19 19 19 19 21 22 25 27 29 30 31 32 34 35 36 37 37 35 34 35 35 35 34 34 34 33 31 30 30 29 28 27 23 19 17 17 16 15 15 15 15 15 16 17 19 21 21 22 23 23 25 26 26 27 28 28 28
14 16 18 20 21 21 21 21 21 20 21 22 25 27 28 30 32 34 35 37 38 39 40 39 38 37 39 41 40 38 38 37 36 35 33 30 26 23 19 17 17 17 16 15 15 16 16 17 18 20 21 22 22 24 25 25 25 26 27 27 28 29 30
16 16 17 20 22 22 23 23 23 22 22 23 25 26 27 29 32 34 35 36 37 39 40 41 40 38 38 42 45 44 42 41 40 37 33 29 24 20 19 18 17 18 17 17 17 18 19 19 20 20 21 21 22 24 25 26 26 27 28 29 30 32 33
19 19 19 20 21 23 24 25 24 24 24 24 25 25 26 27 28 30 31 32 33 34 33 34 34 33 32 36 43 47 46 44 41 34 27 24 22 20 19 18 17 18 18 18 19 19 19 20 21 21 22 23 24 26 27 27 29 29 30 31 32 33 35
24 23 22 22 22 24 25 25 26 26 27 27 26 26 26 25 25 26 27 28 29 28 27 27 26 25 26 28 34 41 44 43 39 31 23 20 20 20 20 19 19 20 20 19 20 20 20 21 22 23 24 25 26 27 28 29 30 31 31 32 33 34 35
25 25 25 25 25 26 27 27 27 27 28 27 27 27 27 26 26 25 26 26 27 26 25 25 23 22 22 23 26 30 32 32 29 24 20 20 21 21 21 21 21 21 20 20 21 21 22 23 23 24 24 25 26 27 28 29 30 30 31 32 33 34 35
25 25 25 26 27 27 28 29 30 30 29 28 28 28 28 27 27 27 26 26 26 26 25 24 22 20 20 20 20 21 23 23 22 20 20 21 22 21 21 21 21 21 21 21 22 23 24 24 24 25 25 26 28 29 29 30 31 32 32 34 35 36 37
27 27 28 28 28 28 28 28 30 31 30 30 31 30 28 27 27 28 27 26 26 25 25 24 21 19 19 20 19 20 22 22 21 21 21 21 21 20 21 21 21 21 21 22 23 24 24 25 26 27 28 29 30 31 31 32 33 34 35 36 37 37 38
30 30 30 30 31 31 30 30 30 31 31 32 32 32 30 28 28 28 27 25 24 24 23 22 20 19 19 20 21 21 22 22 22 21 21 21 21 21 21 21 21 21 22 23 24 24 26 27 28 29 30 31 32 34 34 35 35 36 37 37 38 40 42
32 31 30 30 31 32 32 32 31 31 31 31 32 32 32 30 29 29 27 25 24 24 23 23 22 21 21 22 22 22 22 22 22 21 21 21 21 21 21 21 22 23 23 24 25 26 28 29 31 31 32 33 34 36 37 37 37 37 37 39 41 43 45
35 34 32 31 31 31 31 32 31 30 30 30 30 30 32 32 31 29 28 27 26 25 24 24 23 23 23 24 24 25 24 23 22 22 22 22 22 22 22 23 24 24 25 26 27 28 30 31 32 32 33 34 35 36 37 37 36 36 38 42 45 46 47
38 37 35 33 32 31 30 31 30 30 29 29 29 30 31 33 32 29 27 26 27 26 26 26 26 25 25 26 26 26 26 24 24 23 23 23 23 24 24 25 25 26 27 28 29 30 31 32 32 32 33 34 34 35 35 35 36 38 42 45 47 47 47
42 41 39 37 35 33 32 31 31 31 31 30 29 29 30 32 33 32 30 28 27 27 27 27 27 27 28 28 28 27 26 25 24 24 24 25 25 25 26 26 27 28 29 30 31 32 32 32 32 32 32 32 33 34 35 36 39 43 46 47 47 46 45

ECMWFFLT1_700_spd_027.txt.gz
Wind_Speed
3 5 5 7 8 9 10 11 11 12 14 14 15 15 16 16 14 12 10 8 7 7 7 8 9 10 10 11 12 14 15 15 15 14 14 14 15 16 13 11 11 10 10 10 9 9 10 10 10 9 7 7 7 7 7 7 7 8 9 10 11 11 11
5 6 7 7 9 10 10 11 11 12 13 14 14 14 16 16 15 12 10 8 7 7 6 6 8 9 10 11 12 13 15 15 14 14 14 13 15 15 13 11 10 9 9 10 9 8 9 8 7 7 6 7 7 7 8 8 8 8 9 9 10 11 11
6 7 7 8 9 10 11 12 13 14 15 14 12 12 14 15 14 11 9 8 6 6 7 7 8 9 9 10 10 10 13 13 13 13 13 12 12 12 11 10 9 8 9 9 8 7 8 7 4 4 5 5 6 7 7 8 8 8 8 8 9 10 9
7 8 8 10 11 12 14 15 16 17 17 16 12 11 12 13 12 10 8 8 6 6 7 8 8 7 7 7 8 9 11 11 11 11 11 10 8 8 8 9 9 9 9 8 6 6 7 6 3 3 3 4 5 7 7 7 8 8 8 8 8 8 8
8 9 10 11 13 14 16 18 18 17 18 18 13 10 11 12 11 10 8 7 6 6 7 7 8 8 7 6 7 8 9 9 9 9 10 9 7 7 7 8 9 8 7 6 6 6 5 4 2 2 2 4 5 5 5 5 6 6 6 7 7 7 8
10 11 12 14 15 16 18 19 18 18 18 17 11 9 11 11 9 9 8 7 6 5 5 6 8 8 8 7 6 7 8 8 7 8 9 9 8 9 9 9 9 8 7 7 6 6 5 3 3 2 1 2 3 3 3 4 5 5 6 7 8 8 9
12 13 15 16 18 18 19 19 18 18 18 14 8 7 9 9 8 8 7 7 6 4 5 6 7 8 8 8 7 7 8 9 9 9 9 9 9 10 10 10 9 8 8 8 6 6 5 4 4 3 3 2 1 1 2 4 5 5 6 6 7 7 7
15 16 18 19 20 20 21 20 17 17 15 11 8 8 9 8 7 6 6 6 5 4 5 6 8 8 8 8 8 7 8 9 10 10 10 10 10 10 10 10 9 8 8 8 8 7 6 6 5 5 5 4 2 3 2 2 4 4 4 5 5 6 6
17 18 20 21 20 20 21 19 15 14 12 9 8 8 8 7 6 5 5 5 5 6 7 8 8 8 8 8 8 8 8 8 9 9 10 10 10 10 10 9 8 8 8 8 7 7 6 6 6 6 6 4 3 3 4 2 3 3 3 4 4 5 5
16 19 20 20 19 20 19 16 13 11 8 8 8 7 7 6 5 4 4 4 5 7 8 9 9 9 9 9 9 9 9 9 9 9 10 10 11 11 10 9 9 8 8 7 7 6 6 5 5 6 7 7 4 2 2 0 2 3 2 3 4 4 4
16 18 19 19 19 18 16 12 11 10 7 7 8 6 6 5 4 4 4 5 6 7 8 9 10 10 10 9 9 10 10 10 10 10 10 10 11 10 10 10 9 9 8 8 8 8 8 7 8 7 7 10 9 2 1 3 3 2 2 4 5 5 5
14 16 15 15 15 14 13 12 11 9 6 7 7 5 5 4 3 4 5 5 6 7 8 9 10 10 10 11 11 11 11 11 11 11 12 12 11 11 10 10 10 10 9 9 9 8 8 8 7 7 6 7 8 6 5 7 5 3 4 6 7 7 7
13 14 12 11 12 12 12 11 10 8 6 7 5 5 4 3 4 4 5 6 6 7 8 9 10 11 11 12 13 14 14 14 13 13 13 13 12 11 11 10 9 9 8 7 7 6 6 5 5 5 4 3 3 2 3 5 5 5 7 8 8 9 9
11 12 12 12 12 12 11 10 10 8 7 7 5 5 5 4 5 5 6 6 7 7 8 8 9 10 11 11 11 12 13 13 13 13 12 12 11 10 10 9 8 7 7 6 5 4 3 2 1 1 2 2 2 4 5 7 8 7 8 9 9 10 10
9 11 11 11 10 10 11 10 10 9 9 7 6 6 6 6 6 6 7 8 8 8 8 9 9 9 9 9 9 9 9 10 10 10 10 10 9 8 7 6 5 5 4 4 4 4 3 2 2 3 4 4 5 6 7 9 9 8 8 9 10 10 10
8 9 11 10 8 10 11 10 10 11 10 8 8 8 8 7 8 8 8 8 9 9 9 9 9 9 9 9 8 7 6 6 6 6 6 6 6 5 4 4 3 3 3 4 4 4 4 5 4 5 5 7 7 8 9 9 9 9 10 10 10 11 10
7 9 10 9 8 9 10 10 11 12 12 10 10 10 10 9 9 9 9 10 10 10 10 10 10 10 9 8 8 7 6 6 6 5 5 4 4 4 4 5 5 5 5 5 5 6 6 7 8 8 8 10 10 10 10 10 9 10 11 11 10 12 12
7 8 10 10 9 9 10 10 11 13 13 13 13 13 12 12 12 12 12 11 11 11 12 12 11 10 10 9 9 8 8 7 7 7 7 7 7 7 8 8 8 8 8 8 9 9 8 9 11 11 11 11 12 11 10 10 11 11 11 12 13 14 15
9 9 10 10 10 10 10 10 11 12 13 14 14 15 15 14 14 14 14 14 14 14 14 14 13 13 12 12 11 11 11 10 11 11 11 11 12 12 12 12 12 12 12 12 12 12 12 12 13 13 12 11 12 12 10 12 14 13 12 14 16 17 18
10 11 11 11 11 11 10 10 10 12 13 14 15 17 18 18 16 16 16 17 17 17 17 17 17 16 16 15 15 14 14 14 14 15 15 15 16 16 16 17 17 16 16 16 14 14 14 14 13 14 13 11 12 13 13 13 13 14 15 16 16 16 17
9 10 10 11 12 11 11 10 11 12 13 14 16 17 19 21 20 19 18 18 19 19 20 21 21 20 19 19 18 18 18 18 18 19 19 20 21 20 21 21 21 20 20 18 17 17 16 16 15 15 14 14 14 14 13 12 12 13 15 16 16 16 16
9 9 9 11 11 11 11 11 12 13 13 15 17 18 19 21 22 22 21 21 21 22 22 23 23 23 22 22 21 21 22 21 22 23 23 24 25 25 25 25 24 24 22 21 20 19 18 16 17 17 16 15 14 14 13 12 12 13 14 15 15 15 15
11 10 10 11 11 11 11 11 12 14 15 16 18 20 21 21 22 24 24 24 25 25 25 25 25 25 25 25 24 25 25 25 26 27 27 28 29 29 29 28 27 26 24 23 22 20 18 17 17 17 16 14 13 13 13 13 13 14 15 15 16 17 18
13 12 11 11 11 12 12 13 13 14 16 18 20 22 24 24 24 25 26 27 27 27 28 28 28 27 27 27 27 28 29 29 29 30 30 31 32 33 33 30 27 25 24 24 23 19 16 15 15 15 14 13 12 14 15 15 15 15 15 16 17 20 22
14 14 13 12 13 13 14 15 15 15 17 19 21 24 26 26 27 28 29 30 31 30 30 31 30 30 30 30 30 30 31 33 33 33 33 33 34 36 36 32 27 25 25 25 21 16 14 13 12 13 13 13 14 16 17 17 16 16 17 18 18 20 22
14 15 15 15 16 15 15 16 17 18 19 20 21 24 25 25 26 29 30 32 33 33 34 33 32 32 33 32 32 32 33 35 36 36 37 37 37 37 36 34 32 32 32 26 18 14 12 13 12 13 14 15 16 17 18 18 18 17 19 20 21 22 24
14 14 15 16 17 17 18 18 19 20 21 22 22 23 24 24 26 29 29 31 33 35 36 34 32 32 33 33 33 33 35 37 37 38 40 40 40 39 37 36 36 36 31 20 14 12 12 13 14 15 16 16 17 17 18 18 19 19 20 21 23 24 25
15 15 16 16 17 18 20 21 22 22 23 24 25 25 26 26 27 29 29 31 33 35 36 34 32 32 34 35 36 35 36 38 38 40 42 43 42 42 40 38 37 34 25 14 10 11 13 14 15 16 16 17 17 17 18 18 19 21 21 23 24 25 26
18 18 19 20 20 21 22 23 25 25 25 25 25 26 26 27 28 28 29 30 32 33 35 32 30 30 32 34 35 34 34 36 36 38 41 42 42 42 41 40 38 32 22 13 10 12 14 15 16 16 16 17 17 18 19 20 21 22 23 24 25 26 27
21 22 22 23 24 25 25 25 25 27 29 28 27 27 27 28 28 28 29 30 30 31 32 29 25 27 29 30 30 28 29 31 31 32 34 36 38 39 40 41 37 28 18 14 13 14 15 16 16 16 16 17 19 20 21 22 23 23 24 25 26 27 28
25 26 26 26 27 28 28 27 26 27 29 30 31 31 31 31 31 29 30 30 30 31 30 26 23 24 26 26 26 25 25 27 27 27 27 30 34 36 35 35 30 21 16 16 17 16 16 17 17 17 18 19 21 23 22 22 23 24 26 26 27 29 30
29 29 29 30 31 31 31 31 30 30 30 30 31 33 34 34 33 32 32 32 32 32 32 29 25 24 25 25 25 24 25 25 24 24 25 26 27 25 22 20 18 17 17 18 17 16 16 17 17 18 20 21 23 25 24 23 23 25 27 27 28 29 30
32 32 32 32 33 33 33 33 34 34 33 32 32 33 35 36 36 35 35 35 34 34 34 30 25 24 25 25 25 24 24 23 24 24 22 20 18 16 16 15 15 16 17 17 17 17 17 18 19 20 21 22 24 26 28 26 25 26 28 28 29 30 30
33 33 32 32 33 33 33 33 34 35 35 35 35 35 36 38 38 38 38 36 35 36 36 30 25 24 24 24 24 24 23 22 22 21 17 16 15 15 16 16 16 17 18 18 19 19 19 20 21 22 22 24 25 26 28 28 28 27 28 29 30 31 32
36 36 35 35 35 36 35 36 37 37 38 38 38 37 38 38 39 40 39 36 36 37 35 30 26 24 24 24 23 23 22 21 19 17 16 16 18 18 18 18 18 19 19 19 20 20 20 21 22 23 24 25 26 26 27 29 29 29 30 30 31 32 34
39 40 40 40 40 40 40 40 40 40 41 41 40 40 40 39 39 40 39 37 38 36 32 29 28 26 24 23 23 23 24 23 21 20 20 22 23 21 20 20 20 20 20 20 20 21 22 23 24 25 26 26 27 27 27 29 30 31 31 32 33 34 36
45 46 46 47 46 46 45 44 43 43 43 42 41 41 40 40 41 41 38 37 37 34 30 30 30 27 25 25 25 25 25 25 25 25 25 26 25 23 22 22 22 21 21 21 21 22 23 25 26 27 28 28 28 28 29 30 31 31 32 33 35 36 37

ECMWFFLT1_700_spd_033.txt.gz
Wind_Speed
9 7 7 5 4 3 1 0 2 3 3 4 5 6 6 3 1 0 1 3 4 5 8 10 10 10 9 9 11 12 12 13 13 13 13 11 10 11 11 11 11 11 11 10 10 9 8 9 10 11 10 9 8 8 7 6 5 5 5 6 6 6 6
8 8 7 5 4 3 2 1 2 3 3 5 6 7 8 6 3 2 1 2 3 4 6 9 10 8 8 9 11 11 11 12 13 13 12 10 10 10 9 9 10 11 12 12 12 11 10 9 10 11 11 10 10 8 7 7 6 5 5 6 6 6 6
8 8 7 6 5 4 2 2 3 4 5 7 8 9 9 6 3 3 2 2 2 4 5 8 9 8 8 10 10 10 10 11 12 12 12 11 10 8 7 7 8 10 12 12 12 11 10 10 11 11 11 10 9 8 7 7 6 5 5 6 6 5 4
9 9 8 7 5 4 4 3 4 6 9 10 10 10 9 5 2 2 3 3 3 4 4 6 9 8 9 11 10 10 11 10 11 12 12 11 10 9 8 7 8 10 12 12 11 11 10 10 10 10 10 9 8 7 7 8 7 5 5 5 4 3 3
10 11 9 8 6 6 5 5 6 8 11 12 12 10 8 4 1 0 1 2 3 4 4 5 8 10 10 11 10 10 10 9 11 12 12 12 11 10 10 9 9 10 12 11 10 10 10 10 8 8 8 8 8 8 8 8 6 6 6 5 3 3 3
9 11 10 9 8 7 7 8 8 10 12 12 11 8 5 3 1 0 0 2 3 4 4 4 8 10 10 8 7 8 8 7 9 11 11 12 10 9 10 10 10 9 9 9 10 11 11 10 8 7 8 9 9 9 9 8 7 7 7 6 4 4 4
9 11 11 9 9 9 9 10 11 12 12 9 6 4 3 2 1 1 1 2 3 4 4 4 7 8 8 7 6 6 6 6 7 8 9 9 9 8 9 9 9 9 8 8 9 10 10 10 9 9 9 10 10 9 8 7 7 7 9 10 9 7 6
10 12 11 10 10 10 11 12 12 11 8 5 2 2 3 3 1 1 1 3 4 4 3 2 4 6 7 7 6 4 4 5 5 6 7 8 8 8 7 8 8 8 9 11 11 11 10 9 10 11 9 8 8 7 7 8 7 7 8 9 9 8 7
12 12 11 10 10 11 12 12 10 7 4 2 1 2 3 3 2 2 2 3 4 3 2 2 4 6 6 6 5 3 3 3 4 5 5 6 6 7 7 8 8 8 9 12 13 12 11 10 11 9 6 5 6 7 8 9 8 8 7 6 7 7 7
14 12 11 10 10 10 11 10 8 5 4 3 2 2 3 4 3 2 2 3 3 3 3 4 6 6 6 5 6 5 4 4 4 5 6 5 5 7 9 10 10 10 9 10 12 12 12 12 11 8 6 6 7 5 7 9 9 10 8 6 5 5 5
16 13 11 10 9 8 7 7 6 5 5 4 3 3 3 4 3 2 2 3 3 4 4 5 6 7 7 7 7 7 6 6 6 6 6 6 5 6 9 11 12 12 11 10 11 11 12 11 10 11 10 8 6 2 4 7 8 9 8 6 4 3 3
17 14 11 10 7 6 5 4 4 4 4 3 3 3 3 3 3 2 3 3 3 3 4 5 6 7 7 7 7 7 8 8 7 7 8 8 8 8 9 10 11 12 12 12 12 11 11 11 12 12 10 7 5 2 2 4 5 4 5 5 4 4 3
17 14 12 9 7 6 4 3 3 3 3 2 2 3 3 4 3 3 3 2 2 3 3 4 5 6 6 6 7 8 8 8 8 8 8 9 10 10 9 9 10 10 11 11 11 10 9 11 13 12 9 8 9 6 4 4 4 4 4 3 3 3 3
16 14 12 9 7 6 4 3 2 2 1 1 1 2 4 4 4 3 3 3 3 3 3 4 4 4 4 5 6 6 7 7 7 7 8 9 10 10 10 10 12 12 13 13 13 12 12 12 13 11 8 9 10 9 7 6 5 6 6 5 5 4 3
16 15 13 11 9 6 4 3 2 1 1 1 1 3 5 5 5 5 5 5 5 5 5 5 5 4 4 4 4 5 6 6 6 7 8 9 11 12 13 12 12 13 14 14 14 13 13 13 12 10 8 8 9 9 8 7 7 8 8 7 7 7 6
16 15 13 11 10 7 5 4 2 2 2 3 2 3 5 6 5 6 7 7 7 7 7 6 6 5 5 6 6 5 6 7 8 9 11 11 13 14 14 14 13 13 12 10 10 10 10 10 10 9 9 9 9 9 9 9 9 9 9 8 8 8 8
14 13 11 11 10 8 6 4 3 3 3 4 4 3 6 7 6 7 7 8 8 8 8 7 7 6 7 8 8 7 7 9 10 12 12 12 13 13 13 12 12 11 10 8 7 7 8 8 9 10 10 9 10 10 10 10 11 12 11 10 9 9 9
13 12 11 10 10 8 7 4 3 3 3 4 5 5 6 7 7 7 8 8 8 8 9 8 7 7 8 9 9 9 8 9 9 10 10 10 10 9 9 9 8 7 6 5 5 5 5 6 7 8 9 9 10 11 11 12 13 14 14 12 10 11 10
16 14 12 10 9 9 7 5 3 3 3 4 5 5 6 7 8 8 8 8 8 9 9 9 9 8 8 9 9 8 9 8 8 8 7 7 6 6 5 5 4 3 3 3 5 6 6 7 9 9 9 9 10 11 11 12 14 14 14 13 12 12 12
16 15 14 11 9 8 7 5 4 4 3 3 4 5 6 7 8 9 10 10 10 9 9 10 10 9 9 9 8 8 8 8 7 7 6 6 6 6 5 4 4 4 5 5 7 9 10 11 13 14 13 11 11 12 12 13 13 13 14 14 14 14 13
13 14 14 11 8 7 6 6 5 5 4 3 3 4 5 6 7 9 10 11 11 11 10 10 10 10 11 10 10 10 9 9 9 8 8 9 9 10 9 8 8 9 9 8 9 11 13 14 15 17 17 16 15 16 16 15 15 14 15 16 16 15 14
12 13 10 8 7 6 5 5 5 4 3 3 2 3 4 5 6 7 8 10 12 12 12 12 12 12 13 13 13 13 13 13 13 12 12 13 14 14 13 12 13 13 13 12 13 15 16 16 17 17 19 20 20 20 20 20 19 18 17 17 16 15 15
10 10 9 8 7 7 6 5 5 3 2 3 3 3 3 3 4 5 7 8 9 10 11 12 13 13 14 15 16 16 17 17 17 17 17 18 19 19 18 18 18 17 17 17 18 19 20 20 20 20 21 22 22 21 22 23 24 22 19 18 16 15 15
11 9 8 8 8 7 6 6 4 3 3 3 3 3 4 4 5 7 8 8 9 9 9 10 12 14 15 17 18 18 19 19 20 20 20 22 23 23 22 22 22 22 21 21 22 24 25 25 25 24 23 23 22 21 22 24 26 25 22 19 17 16 16
12 12 10 10 10 9 7 6 5 5 4 4 4 5 5 6 7 8 9 10 11 11 10 10 12 14 15 16 18 19 20 21 22 23 24 26 27 26 24 24 25 26 25 24 24 25 26 27 27 26 25 25 24 23 23 26 27 26 24 20 18 17 16
11 11 11 11 12 11 9 7 7 6 6 6 6 6 7 7 8 9 10 11 12 12 12 12 13 14 16 17 18 19 20 22 23 25 27 29 28 27 26 26 26 26 25 25 25 25 25 25 25 25 25 25 25 24 25 26 27 26 23 21 18 17 16
11 11 10 10 10 10 9 8 8 8 8 8 7 8 9 9 10 11 11 12 13 13 13 13 14 16 17 18 20 20 20 22 24 27 28 28 28 28 28 27 26 25 26 27 27 27 27 26 25 25 25 26 26 25 24 25 26 25 23 21 20 19 18
12 12 11 11 11 10 9 9 10 11 10 10 10 10 11 11 12 13 14 15 15 15 15 15 15 16 18 20 21 22 22 23 26 28 29 29 28 28 29 29 29 28 29 29 28 28 30 30 29 26 26 28 28 26 23 23 25 25 23 23 23 21 20
12 12 12 12 12 12 11 11 12 13 13 13 13 13 14 14 15 16 18 18 19 18 18 17 17 17 18 20 22 23 24 25 28 30 31 31 30 30 30 30 30 30 30 30 29 30 32 34 31 28 26 27 27 23 21 22 25 25 24 23 21 20 19
15 15 14 14 14 13 13 13 15 16 16 16 17 17 17 18 19 20 21 22 23 22 21 20 21 20 20 20 22 23 24 26 29 32 33 33 33 33 32 31 31 31 31 30 30 30 32 33 32 28 26 26 25 24 23 24 25 24 23 21 19 19 19
18 17 17 18 18 17 17 17 17 19 19 20 22 22 23 23 23 23 24 25 26 27 25 24 25 24 23 22 23 24 25 27 29 32 35 35 34 35 35 33 31 30 30 30 30 30 32 32 31 29 27 26 26 25 24 24 24 23 22 20 19 20 20
21 21 20 21 21 21 21 21 21 22 23 25 26 27 28 28 28 28 29 30 31 32 31 29 28 27 26 25 24 25 26 28 30 32 34 35 36 37 36 33 31 30 31 31 30 31 32 31 30 29 27 25 26 25 23 23 23 22 20 19 19 20 20
25 24 24 25 25 26 26 27 27 28 28 29 30 30 31 31 32 33 33 34 35 35 34 32 29 27 26 26 26 26 27 29 31 32 33 35 36 37 36 34 34 34 33 32 32 32 32 31 30 29 26 25 25 24 22 22 21 19 19 19 19 20 21
27 27 28 28 29 30 31 32 32 33 33 34 34 35 35 35 36 36 35 36 36 35 35 33 30 27 27 26 26 27 29 30 31 32 33 35 36 37 37 37 38 38 36 34 33 32 31 30 30 27 24 23 22 21 20 21 20 19 19 19 20 21 22
28 30 31 32 33 33 34 34 35 36 37 37 38 39 39 39 38 38 37 36 36 36 35 34 32 30 29 29 30 30 31 32 33 34 35 35 36 37 38 38 39 40 39 35 33 32 30 28 26 23 21 21 21 21 21 21 20 20 20 20 21 22 23
31 33 34 34 35 36 36 36 37 38 39 40 40 41 41 41 41 40 39 38 37 37 37 36 36 35 34 34 34 35 34 34 35 36 36 35 35 36 37 40 42 42 39 35 33 31 27 23 21 20 21 23 23 23 22 22 22 22 21 22 22 23 24
35 36 36 37 37 37 37 38 38 39 40 41 41 42 42 42 42 42 42 41 41 41 41 40 40 40 40 39 38 38 37 35 35 37 36 35 35 35 38 42 41 37 33 30 28 24 22 21 21 22 23 24 24 23 23 23 23 23 23 23 23 24 25